Retour au catalogue

STARLINK-30928

ActifCommunicationsVLEO
NORAD 58452·PAYLOAD·🇺🇸 United States

Lancé Nov 28, 2023 depuis Cape Canaveral Space Force Station

Loading…

Prochains Passages (prochaines 24 heures)

TLE

FraisSource: CelesTrak SupGP

Époque: Sep 15, 2026, 03:12 UTC

1 58452C 23183R   26258.13381944 -.00026901  00000+0 -97416-3 0  2584
2 58452  43.0028  51.6512 0001792 266.5447 261.7199 15.27597751    11

Suivez STARLINK-30928 en temps réel avec AllMySat

Download on the App Store